This is the latest recevied weather packets stored in our database for station/object K7LDN-13. If no packets are shown the sender has not sent any weather packets the latest 10 day(s).
| Time | Temp. | Humidity | Pressure | Rain* | Wind** | Luminosity | Snow |
|---|---|---|---|---|---|---|---|
| 1777912257 | 19.44° C | 34% | 1012.7 hPa | 0 mm | - | 650 W/m² | - |
| 1777911953 | 19.44° C | 35% | 1012.6 hPa | 0 mm | - | 630 W/m² | - |
| 1777911649 | 18.89° C | 37% | 1012.7 hPa | 0 mm | - | 601 W/m² | - |
| 1777911346 | 18.89° C | 39% | 1012.6 hPa | 0 mm | - | 568 W/m² | - |
| 1777911044 | 18.33° C | 39% | 1012.6 hPa | 0 mm | - | 438 W/m² | - |
| 1777910741 | 18.33° C | 40% | 1012.7 hPa | 0 mm | - | 517 W/m² | - |
| 1777910437 | 17.78° C | 42% | 1012.7 hPa | 0 mm | - | 420 W/m² | - |
| 1777910134 | 17.78° C | 44% | 1012.8 hPa | 0 mm | - | 201 W/m² | - |
| 1777909832 | 17.22° C | 43% | 1012.8 hPa | 0 mm | - | 196 W/m² | - |
| 1777909528 | 17.22° C | 43% | 1012.8 hPa | 0 mm | - | 391 W/m² | - |
| 1777909225 | 17.78° C | 43% | 1012.8 hPa | 0 mm | - | 196 W/m² | - |
| 1777908923 | 18.89° C | 42% | 1012.7 hPa | 0 mm | - | 528 W/m² | - |
| 1777908622 | 18.33° C | 43% | 1012.8 hPa | 0 mm | - | 523 W/m² | - |
| 1777908318 | 18.33° C | 38% | 1013 hPa | 0 mm | - | 505 W/m² | - |
| 1777908014 | 18.89° C | 39% | 1013 hPa | 0 mm | - | 489 W/m² | - |
| 1777907710 | 17.78° C | 42% | 1013.1 hPa | 0 mm | - | 475 W/m² | - |
| 1777907404 | 17.78° C | 43% | 1013.2 hPa | 0 mm | - | 459 W/m² | - |
| 1777907102 | 17.22° C | 44% | 1013.1 hPa | 0 mm | - | 433 W/m² | - |
| 1777906799 | 16.67° C | 46% | 1012.8 hPa | 0 mm | - | 392 W/m² | - |
| 1777906497 | 16.67° C | 47% | 1012.8 hPa | 0 mm | - | 356 W/m² | - |
| 1777906192 | 16.67° C | 49% | 1013.2 hPa | 0 mm | - | 355 W/m² | - |
| 1777905889 | 16.11° C | 50% | 1013.2 hPa | 0 mm | - | 315 W/m² | - |
| 1777905586 | 15.56° C | 51% | 1013.2 hPa | 0 mm | - | 239 W/m² | - |
| 1777905283 | 15.56° C | 51% | 1013.1 hPa | 0 mm | - | 206 W/m² | - |
| 1777904980 | 16.11° C | 50% | 1013.2 hPa | 0 mm | - | 182 W/m² | - |
* Rain latest hour (hover to see other rain measurements)
** Current wind speed in m/s (hover to see current wind gust speed)